Data supplied by UK-AIR on 28/3/2020
All Data GMT hour ending 
Status: R =Ratified P=Provisional,P*=As supplied
,,Swindon Walcot,,,,,,,,,,,,,,,,,,,,,,,
Date,time,"Nitric oxide",status,unit,"Nitrogen dioxide",status,unit,"Nitrogen oxides as nitrogen dioxide",status,unit
 
01-01-2019,01:00,6.04609,R,ugm-3,12.39526,R,ugm-3,21.66580,R,ugm-3
01-01-2019,02:00,0.23804,R,ugm-3,5.43704,R,ugm-3,5.80203,R,ugm-3
01-01-2019,03:00,0.42846,R,ugm-3,6.44868,R,ugm-3,7.10565,R,ugm-3
01-01-2019,04:00,0.21423,R,ugm-3,5.67551,R,ugm-3,6.00400,R,ugm-3
01-01-2019,05:00,0.21423,R,ugm-3,6.39159,R,ugm-3,6.72007,R,ugm-3
01-01-2019,06:00,0.39276,R,ugm-3,9.14739,R,ugm-3,9.74961,R,ugm-3
01-01-2019,07:00,0.67840,R,ugm-3,9.09499,R,ugm-3,10.13519,R,ugm-3
01-01-2019,08:00,0.78552,R,ugm-3,8.37992,R,ugm-3,9.58436,R,ugm-3
01-01-2019,09:00,0.64269,R,ugm-3,10.36155,R,ugm-3,11.34700,R,ugm-3
01-01-2019,10:00,1.10686,R,ugm-3,11.68789,R,ugm-3,13.38505,R,ugm-3
01-01-2019,11:00,1.96379,R,ugm-3,13.56874,R,ugm-3,16.57984,R,ugm-3
01-01-2019,12:00,1.60674,R,ugm-3,7.45123,R,ugm-3,9.91486,R,ugm-3
01-01-2019,13:00,1.57103,R,ugm-3,9.04829,R,ugm-3,11.45717,R,ugm-3
01-01-2019,14:00,1.46392,R,ugm-3,9.76336,R,ugm-3,12.00799,R,ugm-3
01-01-2019,15:00,1.39250,R,ugm-3,12.02107,R,ugm-3,14.15621,R,ugm-3
01-01-2019,16:00,1.14257,R,ugm-3,20.00569,R,ugm-3,21.75760,R,ugm-3
01-01-2019,17:00,1.71385,R,ugm-3,25.57439,R,ugm-3,28.20226,R,ugm-3
01-01-2019,18:00,1.42821,R,ugm-3,12.95781,R,ugm-3,15.14770,R,ugm-3
01-01-2019,19:00,0.96404,R,ugm-3,11.79671,R,ugm-3,13.27489,R,ugm-3
01-01-2019,20:00,0.49987,R,ugm-3,16.41929,R,ugm-3,17.18575,R,ugm-3
01-01-2019,21:00,0.82122,R,ugm-3,19.17643,R,ugm-3,20.43562,R,ugm-3
01-01-2019,22:00,0.85693,R,ugm-3,17.13871,R,ugm-3,18.45265,R,ugm-3
01-01-2019,23:00,0.64269,R,ugm-3,9.03957,R,ugm-3,10.02502,R,ugm-3
01-01-2019,24:00,0.46417,R,ugm-3,8.32182,R,ugm-3,9.03354,R,ugm-3
02-01-2019,01:00,0.38241,R,ugm-3,9.80444,R,ugm-3,10.39079,R,ugm-3
02-01-2019,02:00,0.57362,R,ugm-3,13.26963,R,ugm-3,14.14917,R,ugm-3
02-01-2019,03:00,0.64532,R,ugm-3,12.66226,R,ugm-3,13.65173,R,ugm-3
02-01-2019,04:00,0.50192,R,ugm-3,9.62120,R,ugm-3,10.39079,R,ugm-3
02-01-2019,05:00,0.46606,R,ugm-3,12.43968,R,ugm-3,13.15430,R,ugm-3
02-01-2019,06:00,0.75287,R,ugm-3,21.23003,R,ugm-3,22.38442,R,ugm-3
02-01-2019,07:00,9.67978,R,ugm-3,34.84577,R,ugm-3,49.68789,R,ugm-3
02-01-2019,08:00,23.44658,R,ugm-3,40.76409,R,ugm-3,76.71501,R,ugm-3
02-01-2019,09:00,48.47060,R,ugm-3,48.87667,R,ugm-3,123.19722,R,ugm-3
02-01-2019,10:00,53.52560,R,ugm-3,47.59240,R,ugm-3,129.66383,R,ugm-3
02-01-2019,11:00,60.05049,R,ugm-3,57.37443,R,ugm-3,149.45056,R,ugm-3
02-01-2019,12:00,75.21547,R,ugm-3,69.21833,R,ugm-3,184.54712,R,ugm-3
02-01-2019,13:00,22.08424,R,ugm-3,56.33890,R,ugm-3,90.20093,R,ugm-3
02-01-2019,14:00,14.87818,R,ugm-3,56.00238,R,ugm-3,78.81527,R,ugm-3
02-01-2019,15:00,7.49287,R,ugm-3,53.50883,R,ugm-3,64.99773,R,ugm-3
02-01-2019,16:00,1.64915,R,ugm-3,20.46374,R,ugm-3,22.99239,R,ugm-3
02-01-2019,17:00,1.54159,R,ugm-3,33.28552,R,ugm-3,35.64926,R,ugm-3
02-01-2019,18:00,1.75670,R,ugm-3,32.95569,R,ugm-3,35.64926,R,ugm-3
02-01-2019,19:00,1.07553,R,ugm-3,28.69420,R,ugm-3,30.34333,R,ugm-3
02-01-2019,20:00,0.96798,R,ugm-3,33.11492,R,ugm-3,34.59913,R,ugm-3
02-01-2019,21:00,0.46606,R,ugm-3,25.04128,R,ugm-3,25.75590,R,ugm-3
02-01-2019,22:00,0.82457,R,ugm-3,36.76155,R,ugm-3,38.02588,R,ugm-3
02-01-2019,23:00,0.46606,R,ugm-3,22.33304,R,ugm-3,23.04766,R,ugm-3
02-01-2019,24:00,0.57362,R,ugm-3,13.49071,R,ugm-3,14.37025,R,ugm-3
03-01-2019,01:00,0.57595,R,ugm-3,9.17324,R,ugm-3,10.05635,R,ugm-3
03-01-2019,02:00,0.71994,R,ugm-3,7.25176,R,ugm-3,8.35565,R,ugm-3
03-01-2019,03:00,0.21598,R,ugm-3,5.71374,R,ugm-3,6.04490,R,ugm-3
03-01-2019,04:00,0.50396,R,ugm-3,5.60493,R,ugm-3,6.37765,R,ugm-3
03-01-2019,05:00,0.39597,R,ugm-3,5.38231,R,ugm-3,5.98945,R,ugm-3
03-01-2019,06:00,0.43196,R,ugm-3,5.43803,R,ugm-3,6.10036,R,ugm-3
03-01-2019,07:00,0.46796,R,ugm-3,5.82650,R,ugm-3,6.54402,R,ugm-3
03-01-2019,08:00,0.64794,R,ugm-3,16.03205,R,ugm-3,17.02555,R,ugm-3
03-01-2019,09:00,0.79193,R,ugm-3,16.75406,R,ugm-3,17.96834,R,ugm-3
03-01-2019,10:00,0.50396,R,ugm-3,14.81093,R,ugm-3,15.58365,R,ugm-3
03-01-2019,11:00,1.22389,R,ugm-3,11.76602,R,ugm-3,13.64263,R,ugm-3
03-01-2019,12:00,0.82793,R,ugm-3,8.82385,R,ugm-3,10.09332,R,ugm-3
03-01-2019,13:00,1.15190,R,ugm-3,9.60263,R,ugm-3,11.36885,R,ugm-3
03-01-2019,14:00,1.15190,R,ugm-3,10.10175,R,ugm-3,11.86798,R,ugm-3
03-01-2019,15:00,1.11590,R,ugm-3,21.02668,R,ugm-3,22.73771,R,ugm-3
03-01-2019,16:00,3.31171,R,ugm-3,24.92480,R,ugm-3,30.00268,R,ugm-3
03-01-2019,17:00,0.97192,R,ugm-3,19.86101,R,ugm-3,21.35126,R,ugm-3
03-01-2019,18:00,0.43196,R,ugm-3,13.75670,R,ugm-3,14.41903,R,ugm-3
03-01-2019,19:00,0.93592,R,ugm-3,26.57115,R,ugm-3,28.00620,R,ugm-3
03-01-2019,20:00,0.71994,R,ugm-3,24.40671,R,ugm-3,25.51060,R,ugm-3
03-01-2019,21:00,1.07991,R,ugm-3,32.33982,R,ugm-3,33.99565,R,ugm-3
03-01-2019,22:00,6.01147,R,ugm-3,55.55728,R,ugm-3,64.77474,R,ugm-3
03-01-2019,23:00,17.31448,R,ugm-3,66.34336,R,ugm-3,92.89185,R,ugm-3
03-01-2019,24:00,34.05301,R,ugm-3,63.36022,R,ugm-3,115.57410,R,ugm-3
04-01-2019,01:00,15.22810,R,ugm-3,65.01558,R,ugm-3,88.36501,R,ugm-3
04-01-2019,02:00,1.83123,R,ugm-3,54.32151,R,ugm-3,57.12935,R,ugm-3
04-01-2019,03:00,2.27699,R,ugm-3,48.53719,R,ugm-3,52.02851,R,ugm-3
04-01-2019,04:00,5.60211,R,ugm-3,48.44683,R,ugm-3,57.03661,R,ugm-3
04-01-2019,05:00,2.06013,R,ugm-3,40.91239,R,ugm-3,44.07121,R,ugm-3
04-01-2019,06:00,21.61330,R,ugm-3,41.87017,R,ugm-3,75.01010,R,ugm-3
04-01-2019,07:00,49.26242,R,ugm-3,44.65956,R,ugm-3,120.19422,R,ugm-3
04-01-2019,08:00,86.16406,R,ugm-3,49.17657,R,ugm-3,181.29294,R,ugm-3
04-01-2019,09:00,130.80022,R,ugm-3,58.08261,R,ugm-3,258.64015,R,ugm-3
04-01-2019,10:00,133.94463,R,ugm-3,58.93709,R,ugm-3,264.31599,R,ugm-3
04-01-2019,11:00,75.24898,R,ugm-3,65.35633,R,ugm-3,180.73649,R,ugm-3
04-01-2019,12:00,17.34847,R,ugm-3,39.84008,R,ugm-3,66.44069,R,ugm-3
04-01-2019,13:00,3.28898,R,ugm-3,19.16275,R,ugm-3,24.20578,R,ugm-3
04-01-2019,14:00,2.56613,R,ugm-3,17.48883,R,ugm-3,21.42351,R,ugm-3
04-01-2019,15:00,3.07213,R,ugm-3,20.83075,R,ugm-3,25.54127,R,ugm-3
04-01-2019,16:00,2.38541,R,ugm-3,27.83775,R,ugm-3,31.49534,R,ugm-3
04-01-2019,17:00,12.10778,R,ugm-3,63.40077,R,ugm-3,81.96578,R,ugm-3
04-01-2019,18:00,19.84231,R,ugm-3,72.18580,R,ugm-3,102.61025,R,ugm-3
04-01-2019,19:00,15.03534,R,ugm-3,69.09504,R,ugm-3,92.14890,R,ugm-3
04-01-2019,20:00,16.58947,R,ugm-3,65.37657,R,ugm-3,90.81341,R,ugm-3
04-01-2019,21:00,5.99968,R,ugm-3,55.68324,R,ugm-3,64.88262,R,ugm-3
04-01-2019,22:00,4.51783,R,ugm-3,55.22875,R,ugm-3,62.15599,R,ugm-3
04-01-2019,23:00,10.66208,R,ugm-3,59.55213,R,ugm-3,75.90042,R,ugm-3
04-01-2019,24:00,4.73469,R,ugm-3,48.66395,R,ugm-3,55.92370,R,ugm-3
05-01-2019,01:00,1.01608,R,ugm-3,32.76079,R,ugm-3,34.31876,R,ugm-3
05-01-2019,02:00,0.61690,R,ugm-3,22.83900,R,ugm-3,23.78491,R,ugm-3
05-01-2019,03:00,0.39917,R,ugm-3,19.82287,R,ugm-3,20.43492,R,ugm-3
05-01-2019,04:00,0.68948,R,ugm-3,22.95105,R,ugm-3,24.00824,R,ugm-3
05-01-2019,05:00,0.61690,R,ugm-3,24.84900,R,ugm-3,25.79490,R,ugm-3
05-01-2019,06:00,0.94350,R,ugm-3,27.86571,R,ugm-3,29.31239,R,ugm-3
05-01-2019,07:00,1.92329,R,ugm-3,37.30668,R,ugm-3,40.25568,R,ugm-3
05-01-2019,08:00,6.45934,R,ugm-3,55.58806,R,ugm-3,65.49225,R,ugm-3
05-01-2019,09:00,5.69729,R,ugm-3,51.73155,R,ugm-3,60.46727,R,ugm-3
05-01-2019,10:00,4.17317,R,ugm-3,44.07437,R,ugm-3,50.47314,R,ugm-3
05-01-2019,11:00,3.99173,R,ugm-3,42.06342,R,ugm-3,48.18398,R,ugm-3
05-01-2019,12:00,8.23748,R,ugm-3,50.06997,R,ugm-3,62.70059,R,ugm-3
05-01-2019,13:00,4.35461,R,ugm-3,37.15202,R,ugm-3,43.82900,R,ugm-3
05-01-2019,14:00,4.24575,R,ugm-3,39.94310,R,ugm-3,46.45315,R,ugm-3
05-01-2019,15:00,2.39504,R,ugm-3,35.52251,R,ugm-3,39.19485,R,ugm-3
05-01-2019,16:00,3.15710,R,ugm-3,41.94734,R,ugm-3,46.78815,R,ugm-3
05-01-2019,17:00,3.08452,R,ugm-3,47.69777,R,ugm-3,52.42730,R,ugm-3
05-01-2019,18:00,2.64906,R,ugm-3,44.68048,R,ugm-3,48.74231,R,ugm-3
05-01-2019,19:00,2.54019,R,ugm-3,40.99492,R,ugm-3,44.88983,R,ugm-3
05-01-2019,20:00,3.84658,R,ugm-3,48.31596,R,ugm-3,54.21396,R,ugm-3
05-01-2019,21:00,2.97565,R,ugm-3,44.01221,R,ugm-3,48.57481,R,ugm-3
05-01-2019,22:00,1.95958,R,ugm-3,39.09353,R,ugm-3,42.09817,R,ugm-3
05-01-2019,23:00,1.16123,R,ugm-3,29.82102,R,ugm-3,31.60155,R,ugm-3
05-01-2019,24:00,0.76206,R,ugm-3,26.80392,R,ugm-3,27.97239,R,ugm-3
06-01-2019,01:00,0.68011,R,ugm-3,30.85168,R,ugm-3,31.89449,R,ugm-3
06-01-2019,02:00,0.48579,R,ugm-3,27.71368,R,ugm-3,28.45855,R,ugm-3
06-01-2019,03:00,0.40078,R,ugm-3,24.03462,R,ugm-3,24.64914,R,ugm-3
06-01-2019,04:00,0.58295,R,ugm-3,20.50609,R,ugm-3,21.39993,R,ugm-3
06-01-2019,05:00,0.32791,R,ugm-3,18.82438,R,ugm-3,19.32717,R,ugm-3
06-01-2019,06:00,0.72869,R,ugm-3,20.56274,R,ugm-3,21.68004,R,ugm-3
06-01-2019,07:00,0.72869,R,ugm-3,24.82031,R,ugm-3,25.93761,R,ugm-3
06-01-2019,08:00,1.31163,R,ugm-3,26.95160,R,ugm-3,28.96274,R,ugm-3
06-01-2019,09:00,1.74884,R,ugm-3,27.28959,R,ugm-3,29.97111,R,ugm-3
06-01-2019,10:00,2.18606,R,ugm-3,27.51554,R,ugm-3,30.86744,R,ugm-3
06-01-2019,11:00,3.78916,R,ugm-3,30.99568,R,ugm-3,36.80564,R,ugm-3
06-01-2019,12:00,4.15350,R,ugm-3,27.35588,R,ugm-3,33.72450,R,ugm-3
06-01-2019,13:00,4.44498,R,ugm-3,27.46917,R,ugm-3,34.28471,R,ugm-3
06-01-2019,14:00,4.00777,R,ugm-3,29.14793,R,ugm-3,35.29308,R,ugm-3
06-01-2019,15:00,2.47753,R,ugm-3,30.65395,R,ugm-3,34.45277,R,ugm-3
06-01-2019,16:00,3.06048,R,ugm-3,40.29201,R,ugm-3,44.98468,R,ugm-3
06-01-2019,17:00,3.02404,R,ugm-3,51.49601,R,ugm-3,56.13281,R,ugm-3
06-01-2019,18:00,4.29924,R,ugm-3,56.31924,R,ugm-3,62.91132,R,ugm-3
06-01-2019,19:00,2.95117,R,ugm-3,53.34438,R,ugm-3,57.86945,R,ugm-3
06-01-2019,20:00,3.75273,R,ugm-3,54.18812,R,ugm-3,59.94222,R,ugm-3
06-01-2019,21:00,4.00777,R,ugm-3,54.69339,R,ugm-3,60.83855,R,ugm-3
06-01-2019,22:00,2.33179,R,ugm-3,49.75641,R,ugm-3,53.33177,R,ugm-3
06-01-2019,23:00,1.93102,R,ugm-3,46.00130,R,ugm-3,48.96215,R,ugm-3
06-01-2019,24:00,0.94729,R,ugm-3,34.23274,R,ugm-3,35.68523,R,ugm-3
07-01-2019,01:00,2.19480,R,ugm-3,29.53534,R,ugm-3,32.90066,R,ugm-3
07-01-2019,02:00,0.58528,R,ugm-3,20.61167,R,ugm-3,21.50909,R,ugm-3
07-01-2019,03:00,0.40238,R,ugm-3,13.21030,R,ugm-3,13.82727,R,ugm-3
07-01-2019,04:00,0.29264,R,ugm-3,8.82568,R,ugm-3,9.27439,R,ugm-3
07-01-2019,05:00,0.32922,R,ugm-3,8.20751,R,ugm-3,8.71230,R,ugm-3
07-01-2019,06:00,0.29264,R,ugm-3,10.96160,R,ugm-3,11.41031,R,ugm-3
07-01-2019,07:00,0.69502,R,ugm-3,14.50405,R,ugm-3,15.56973,R,ugm-3
07-01-2019,08:00,0.76818,R,ugm-3,18.83233,R,ugm-3,20.01020,R,ugm-3
07-01-2019,09:00,1.46320,R,ugm-3,26.02929,R,ugm-3,28.27283,R,ugm-3
07-01-2019,10:00,1.24372,R,ugm-3,22.76848,R,ugm-3,24.67549,R,ugm-3
07-01-2019,11:00,1.02424,R,ugm-3,15.79792,R,ugm-3,17.36840,R,ugm-3
07-01-2019,12:00,0.95108,R,ugm-3,15.46043,R,ugm-3,16.91873,R,ugm-3
07-01-2019,13:00,0.73160,R,ugm-3,13.66104,R,ugm-3,14.78281,R,ugm-3
07-01-2019,14:00,0.87792,R,ugm-3,13.66152,R,ugm-3,15.00765,R,ugm-3
07-01-2019,15:00,0.69502,R,ugm-3,16.58376,R,ugm-3,17.64944,R,ugm-3
07-01-2019,16:00,0.84134,R,ugm-3,16.64045,R,ugm-3,17.93048,R,ugm-3
07-01-2019,17:00,0.87792,R,ugm-3,16.86540,R,ugm-3,18.21153,R,ugm-3
07-01-2019,18:00,1.09740,R,ugm-3,16.75370,R,ugm-3,18.43636,R,ugm-3
07-01-2019,19:00,0.69502,R,ugm-3,17.48309,R,ugm-3,18.54878,R,ugm-3
07-01-2019,20:00,0.87792,R,ugm-3,16.19090,R,ugm-3,17.53702,R,ugm-3
07-01-2019,21:00,0.65844,R,ugm-3,15.29085,R,ugm-3,16.30044,R,ugm-3
07-01-2019,22:00,0.54870,R,ugm-3,14.95324,R,ugm-3,15.79457,R,ugm-3
07-01-2019,23:00,0.47554,R,ugm-3,14.27849,R,ugm-3,15.00765,R,ugm-3
07-01-2019,24:00,0.54870,R,ugm-3,11.52452,R,ugm-3,12.36585,R,ugm-3
08-01-2019,01:00,0.53865,R,ugm-3,4.81369,R,ugm-3,5.63961,R,ugm-3
08-01-2019,02:00,0.44071,R,ugm-3,5.02026,R,ugm-3,5.69600,R,ugm-3
08-01-2019,03:00,0.51416,R,ugm-3,5.24601,R,ugm-3,6.03438,R,ugm-3
08-01-2019,04:00,0.22036,R,ugm-3,7.10641,R,ugm-3,7.44428,R,ugm-3
08-01-2019,05:00,0.62434,R,ugm-3,9.64515,R,ugm-3,10.60246,R,ugm-3
08-01-2019,06:00,0.66107,R,ugm-3,12.40864,R,ugm-3,13.42226,R,ugm-3
08-01-2019,07:00,1.17523,R,ugm-3,16.07556,R,ugm-3,17.87755,R,ugm-3
08-01-2019,08:00,2.27700,R,ugm-3,32.54573,R,ugm-3,36.03708,R,ugm-3
08-01-2019,09:00,6.28012,R,ugm-3,44.68002,R,ugm-3,54.30941,R,ugm-3
08-01-2019,10:00,7.89606,R,ugm-3,40.00284,R,ugm-3,52.10996,R,ugm-3
08-01-2019,11:00,5.36197,R,ugm-3,24.99570,R,ugm-3,33.21728,R,ugm-3
08-01-2019,12:00,3.48896,R,ugm-3,16.53201,R,ugm-3,21.88167,R,ugm-3
08-01-2019,13:00,3.08497,R,ugm-3,14.38804,R,ugm-3,19.11826,R,ugm-3
08-01-2019,14:00,2.01992,R,ugm-3,11.84779,R,ugm-3,14.94496,R,ugm-3
08-01-2019,15:00,2.38718,R,ugm-3,16.07833,R,ugm-3,19.73862,R,ugm-3
08-01-2019,16:00,2.24028,R,ugm-3,22.05598,R,ugm-3,25.49102,R,ugm-3
08-01-2019,17:00,1.72612,R,ugm-3,30.23223,R,ugm-3,32.87890,R,ugm-3
08-01-2019,18:00,2.09337,R,ugm-3,31.75576,R,ugm-3,34.96556,R,ugm-3
08-01-2019,19:00,1.13850,R,ugm-3,26.39596,R,ugm-3,28.14163,R,ugm-3
08-01-2019,20:00,1.87302,R,ugm-3,40.44025,R,ugm-3,43.31218,R,ugm-3
08-01-2019,21:00,2.09337,R,ugm-3,51.71997,R,ugm-3,54.92976,R,ugm-3
08-01-2019,22:00,1.65266,R,ugm-3,46.02296,R,ugm-3,48.55701,R,ugm-3
08-01-2019,23:00,1.10178,R,ugm-3,26.67785,R,ugm-3,28.36722,R,ugm-3
08-01-2019,24:00,0.40398,R,ugm-3,23.91285,R,ugm-3,24.53229,R,ugm-3
09-01-2019,01:00,0.63911,R,ugm-3,23.91688,R,ugm-3,24.89683,R,ugm-3
09-01-2019,02:00,0.55308,R,ugm-3,13.24131,R,ugm-3,14.08934,R,ugm-3
09-01-2019,03:00,0.33185,R,ugm-3,9.50649,R,ugm-3,10.01532,R,ugm-3
09-01-2019,04:00,0.40559,R,ugm-3,12.56211,R,ugm-3,13.18400,R,ugm-3
09-01-2019,05:00,0.51620,R,ugm-3,15.05194,R,ugm-3,15.84344,R,ugm-3
09-01-2019,06:00,1.06928,R,ugm-3,26.82207,R,ugm-3,28.46161,R,ugm-3
09-01-2019,07:00,8.33299,R,ugm-3,49.23867,R,ugm-3,62.01574,R,ugm-3
09-01-2019,08:00,18.98890,R,ugm-3,55.02407,R,ugm-3,84.13997,R,ugm-3
09-01-2019,09:00,39.93200,R,ugm-3,62.18085,R,ugm-3,123.40907,R,ugm-3
09-01-2019,10:00,19.21013,R,ugm-3,46.42363,R,ugm-3,75.87875,R,ugm-3
09-01-2019,11:00,7.00561,R,ugm-3,26.26395,R,ugm-3,37.00575,R,ugm-3
09-01-2019,12:00,4.75644,R,ugm-3,18.62223,R,ugm-3,25.91534,R,ugm-3
09-01-2019,13:00,4.12963,R,ugm-3,18.73458,R,ugm-3,25.06658,R,ugm-3
09-01-2019,14:00,3.65029,R,ugm-3,20.82755,R,ugm-3,26.42459,R,ugm-3
09-01-2019,15:00,4.05588,R,ugm-3,26.26012,R,ugm-3,32.47905,R,ugm-3
09-01-2019,16:00,4.16650,R,ugm-3,35.93607,R,ugm-3,42.32461,R,ugm-3
09-01-2019,17:00,4.31398,R,ugm-3,53.36405,R,ugm-3,59.97873,R,ugm-3
09-01-2019,18:00,11.46708,R,ugm-3,69.21679,R,ugm-3,86.79941,R,ugm-3
09-01-2019,19:00,32.85264,R,ugm-3,78.58092,R,ugm-3,128.95427,R,ugm-3
09-01-2019,20:00,21.01684,R,ugm-3,71.54915,R,ugm-3,103.77452,R,ugm-3
09-01-2019,21:00,16.40789,R,ugm-3,66.05453,R,ugm-3,91.21294,R,ugm-3
09-01-2019,22:00,11.02462,R,ugm-3,61.46425,R,ugm-3,78.36844,R,ugm-3
09-01-2019,23:00,18.84141,R,ugm-3,60.96516,R,ugm-3,89.85493,R,ugm-3
09-01-2019,24:00,23.56099,R,ugm-3,56.27485,R,ugm-3,92.40119,R,ugm-3
10-01-2019,01:00,12.33915,R,ugm-3,48.37321,R,ugm-3,67.29298,R,ugm-3
10-01-2019,02:00,2.41847,R,ugm-3,37.39419,R,ugm-3,41.10246,R,ugm-3
10-01-2019,03:00,0.81439,R,ugm-3,31.56514,R,ugm-3,32.81384,R,ugm-3
10-01-2019,04:00,1.70280,R,ugm-3,28.55655,R,ugm-3,31.16747,R,ugm-3
10-01-2019,05:00,1.25859,R,ugm-3,27.42097,R,ugm-3,29.35079,R,ugm-3
10-01-2019,06:00,2.70227,R,ugm-3,36.27778,R,ugm-3,40.42121,R,ugm-3
10-01-2019,07:00,21.98837,R,ugm-3,42.13150,R,ugm-3,75.84653,R,ugm-3
10-01-2019,08:00,22.46960,R,ugm-3,55.01876,R,ugm-3,89.47166,R,ugm-3
10-01-2019,09:00,25.24591,R,ugm-3,50.76181,R,ugm-3,89.47166,R,ugm-3
10-01-2019,10:00,,,,,,,,,
10-01-2019,11:00,,,,,,,,,
10-01-2019,12:00,,,,,,,,,
10-01-2019,13:00,,,,,,,,,
10-01-2019,14:00,11.51243,R,ugm-3,41.61715,R,ugm-3,59.26930,R,ugm-3
10-01-2019,15:00,3.81280,R,ugm-3,32.13383,R,ugm-3,37.98004,R,ugm-3
10-01-2019,16:00,4.25701,R,ugm-3,37.64079,R,ugm-3,44.16812,R,ugm-3
10-01-2019,17:00,4.44209,R,ugm-3,46.09979,R,ugm-3,52.91090,R,ugm-3
10-01-2019,18:00,10.58699,R,ugm-3,56.37740,R,ugm-3,72.61056,R,ugm-3
10-01-2019,19:00,25.24591,R,ugm-3,61.66191,R,ugm-3,100.37176,R,ugm-3
10-01-2019,20:00,13.06716,R,ugm-3,56.03758,R,ugm-3,76.07362,R,ugm-3
10-01-2019,21:00,3.77578,R,ugm-3,35.36978,R,ugm-3,41.15923,R,ugm-3
10-01-2019,22:00,2.66526,R,ugm-3,36.39131,R,ugm-3,40.47798,R,ugm-3
10-01-2019,23:00,0.96245,R,ugm-3,24.18491,R,ugm-3,25.66065,R,ugm-3
10-01-2019,24:00,0.48123,R,ugm-3,21.00556,R,ugm-3,21.74343,R,ugm-3
11-01-2019,01:00,0.34406,R,ugm-3,12.53741,R,ugm-3,13.06496,R,ugm-3
11-01-2019,02:00,0.44236,R,ugm-3,9.74348,R,ugm-3,10.42176,R,ugm-3
11-01-2019,03:00,0.40550,R,ugm-3,8.38401,R,ugm-3,9.00576,R,ugm-3
11-01-2019,04:00,0.25804,R,ugm-3,9.23314,R,ugm-3,9.62880,R,ugm-3
11-01-2019,05:00,0.29491,R,ugm-3,7.53406,R,ugm-3,7.98624,R,ugm-3
11-01-2019,06:00,0.36863,R,ugm-3,15.46389,R,ugm-3,16.02911,R,ugm-3
11-01-2019,07:00,1.84316,R,ugm-3,34.95272,R,ugm-3,37.77886,R,ugm-3
11-01-2019,08:00,3.68632,R,ugm-3,53.47986,R,ugm-3,59.13213,R,ugm-3
11-01-2019,09:00,5.08712,R,ugm-3,53.82415,R,ugm-3,61.62429,R,ugm-3
11-01-2019,10:00,9.62129,R,ugm-3,57.46352,R,ugm-3,72.21597,R,ugm-3
11-01-2019,11:00,5.75066,R,ugm-3,37.06083,R,ugm-3,45.87838,R,ugm-3
11-01-2019,12:00,3.02278,R,ugm-3,20.34336,R,ugm-3,24.97823,R,ugm-3
11-01-2019,13:00,2.94906,R,ugm-3,19.26697,R,ugm-3,23.78879,R,ugm-3
11-01-2019,14:00,2.10120,R,ugm-3,17.11195,R,ugm-3,20.33375,R,ugm-3
11-01-2019,15:00,1.51139,R,ugm-3,21.75456,R,ugm-3,24.07199,R,ugm-3
11-01-2019,16:00,2.24866,R,ugm-3,30.64938,R,ugm-3,34.09726,R,ugm-3
11-01-2019,17:00,2.13807,R,ugm-3,37.78566,R,ugm-3,41.06398,R,ugm-3
11-01-2019,18:00,2.76474,R,ugm-3,44.86765,R,ugm-3,49.10686,R,ugm-3
11-01-2019,19:00,1.69571,R,ugm-3,37.44442,R,ugm-3,40.04446,R,ugm-3
11-01-2019,20:00,1.51139,R,ugm-3,39.59615,R,ugm-3,41.91358,R,ugm-3
11-01-2019,21:00,0.99531,R,ugm-3,32.06139,R,ugm-3,33.58751,R,ugm-3
11-01-2019,22:00,0.84785,R,ugm-3,29.85196,R,ugm-3,31.15199,R,ugm-3
11-01-2019,23:00,0.84785,R,ugm-3,29.00236,R,ugm-3,30.30239,R,ugm-3
11-01-2019,24:00,0.51609,R,ugm-3,28.03843,R,ugm-3,28.82975,R,ugm-3
12-01-2019,01:00,0.68523,R,ugm-3,23.73776,R,ugm-3,24.78844,R,ugm-3
12-01-2019,02:00,0.34262,R,ugm-3,20.79724,R,ugm-3,21.32258,R,ugm-3
12-01-2019,03:00,0.33038,R,ugm-3,16.89807,R,ugm-3,17.40465,R,ugm-3
12-01-2019,04:00,0.47722,R,ugm-3,9.72237,R,ugm-3,10.45409,R,ugm-3
12-01-2019,05:00,0.36709,R,ugm-3,7.63089,R,ugm-3,8.19375,R,ugm-3
12-01-2019,06:00,0.36709,R,ugm-3,8.13946,R,ugm-3,8.70232,R,ugm-3
12-01-2019,07:00,0.36709,R,ugm-3,8.02644,R,ugm-3,8.58931,R,ugm-3
12-01-2019,08:00,0.69747,R,ugm-3,10.45832,R,ugm-3,11.52775,R,ugm-3
12-01-2019,09:00,0.91772,R,ugm-3,12.04189,R,ugm-3,13.44905,R,ugm-3
12-01-2019,10:00,1.06456,R,ugm-3,12.26881,R,ugm-3,13.90112,R,ugm-3
12-01-2019,11:00,1.61519,R,ugm-3,15.83219,R,ugm-3,18.30879,R,ugm-3
12-01-2019,12:00,1.76203,R,ugm-3,19.73217,R,ugm-3,22.43391,R,ugm-3
12-01-2019,13:00,1.79874,R,ugm-3,18.37619,R,ugm-3,21.13422,R,ugm-3
12-01-2019,14:00,1.57848,R,ugm-3,14.53227,R,ugm-3,16.95258,R,ugm-3
12-01-2019,15:00,1.35823,R,ugm-3,14.53094,R,ugm-3,16.61353,R,ugm-3
12-01-2019,16:00,1.13798,R,ugm-3,17.29852,R,ugm-3,19.04340,R,ugm-3
12-01-2019,17:00,0.80760,R,ugm-3,20.57402,R,ugm-3,21.81232,R,ugm-3
12-01-2019,18:00,0.95443,R,ugm-3,15.71517,R,ugm-3,17.17861,R,ugm-3
12-01-2019,19:00,0.88101,R,ugm-3,17.01442,R,ugm-3,18.36529,R,ugm-3
12-01-2019,20:00,0.99114,R,ugm-3,15.20682,R,ugm-3,16.72654,R,ugm-3
12-01-2019,21:00,0.66076,R,ugm-3,14.58322,R,ugm-3,15.59637,R,ugm-3
12-01-2019,22:00,0.69747,R,ugm-3,11.30594,R,ugm-3,12.37538,R,ugm-3
12-01-2019,23:00,0.66076,R,ugm-3,8.93236,R,ugm-3,9.94551,R,ugm-3
12-01-2019,24:00,0.44051,R,ugm-3,7.97038,R,ugm-3,8.64582,R,ugm-3
13-01-2019,01:00,0.43866,R,ugm-3,5.64165,R,ugm-3,6.31425,R,ugm-3
13-01-2019,02:00,0.34118,R,ugm-3,3.53603,R,ugm-3,4.05916,R,ugm-3
13-01-2019,03:00,0.51177,R,ugm-3,4.68389,R,ugm-3,5.46859,R,ugm-3
13-01-2019,04:00,0.47521,R,ugm-3,5.86749,R,ugm-3,6.59613,R,ugm-3
13-01-2019,05:00,0.47521,R,ugm-3,4.79632,R,ugm-3,5.52497,R,ugm-3
13-01-2019,06:00,0.43866,R,ugm-3,4.79599,R,ugm-3,5.46859,R,ugm-3
13-01-2019,07:00,0.36555,R,ugm-3,5.35911,R,ugm-3,5.91961,R,ugm-3
13-01-2019,08:00,0.51177,R,ugm-3,6.03695,R,ugm-3,6.82164,R,ugm-3
13-01-2019,09:00,0.36555,R,ugm-3,6.54303,R,ugm-3,7.10353,R,ugm-3
13-01-2019,10:00,0.73109,R,ugm-3,8.46313,R,ugm-3,9.58413,R,ugm-3
13-01-2019,11:00,0.91387,R,ugm-3,8.29564,R,ugm-3,9.69688,R,ugm-3
13-01-2019,12:00,0.87731,R,ugm-3,8.01343,R,ugm-3,9.35862,R,ugm-3
13-01-2019,13:00,0.84076,R,ugm-3,9.19702,R,ugm-3,10.48616,R,ugm-3
13-01-2019,14:00,1.13320,R,ugm-3,10.38356,R,ugm-3,12.12110,R,ugm-3
13-01-2019,15:00,0.76765,R,ugm-3,12.18436,R,ugm-3,13.36140,R,ugm-3
13-01-2019,16:00,0.69454,R,ugm-3,13.14211,R,ugm-3,14.20706,R,ugm-3
13-01-2019,17:00,0.80420,R,ugm-3,16.63848,R,ugm-3,17.87158,R,ugm-3
13-01-2019,18:00,1.16975,R,ugm-3,12.86449,R,ugm-3,14.65808,R,ugm-3
13-01-2019,19:00,0.80420,R,ugm-3,8.85843,R,ugm-3,10.09152,R,ugm-3
13-01-2019,20:00,0.47521,R,ugm-3,7.61518,R,ugm-3,8.34383,R,ugm-3
13-01-2019,21:00,0.54832,R,ugm-3,8.40512,R,ugm-3,9.24586,R,ugm-3
13-01-2019,22:00,0.69454,R,ugm-3,9.36484,R,ugm-3,10.42978,R,ugm-3
13-01-2019,23:00,0.51177,R,ugm-3,6.54434,R,ugm-3,7.32904,R,ugm-3
13-01-2019,24:00,0.40210,R,ugm-3,5.35944,R,ugm-3,5.97599,R,ugm-3
14-01-2019,01:00,0.29120,R,ugm-3,4.27814,R,ugm-3,4.72465,R,ugm-3
14-01-2019,02:00,0.38827,R,ugm-3,2.17945,R,ugm-3,2.77480,R,ugm-3
14-01-2019,03:00,0.40041,R,ugm-3,4.67316,R,ugm-3,5.28711,R,ugm-3
14-01-2019,04:00,0.07280,R,ugm-3,3.60060,R,ugm-3,3.71223,R,ugm-3
14-01-2019,05:00,0.40041,R,ugm-3,4.16695,R,ugm-3,4.78090,R,ugm-3
14-01-2019,06:00,0.54601,R,ugm-3,8.66835,R,ugm-3,9.50555,R,ugm-3
14-01-2019,07:00,1.09201,R,ugm-3,22.00510,R,ugm-3,23.67950,R,ugm-3
14-01-2019,08:00,2.58443,R,ugm-3,49.30207,R,ugm-3,53.26480,R,ugm-3
14-01-2019,09:00,5.24166,R,ugm-3,52.93338,R,ugm-3,60.97049,R,ugm-3
14-01-2019,10:00,3.09404,R,ugm-3,33.44680,R,ugm-3,38.19092,R,ugm-3
14-01-2019,11:00,3.64004,R,ugm-3,30.13478,R,ugm-3,35.71610,R,ugm-3
14-01-2019,12:00,2.73003,R,ugm-3,19.60600,R,ugm-3,23.79199,R,ugm-3
14-01-2019,13:00,1.82002,R,ugm-3,17.06412,R,ugm-3,19.85478,R,ugm-3
14-01-2019,14:00,2.14763,R,ugm-3,19.26160,R,ugm-3,22.55458,R,ugm-3
14-01-2019,15:00,1.89282,R,ugm-3,18.58362,R,ugm-3,21.48591,R,ugm-3
14-01-2019,16:00,2.18403,R,ugm-3,24.38041,R,ugm-3,27.72920,R,ugm-3
14-01-2019,17:00,1.89282,R,ugm-3,36.80727,R,ugm-3,39.70956,R,ugm-3
14-01-2019,18:00,4.98686,R,ugm-3,59.17364,R,ugm-3,66.82005,R,ugm-3
14-01-2019,19:00,5.09606,R,ugm-3,53.77534,R,ugm-3,61.58919,R,ugm-3
14-01-2019,20:00,1.85642,R,ugm-3,38.38172,R,ugm-3,41.22820,R,ugm-3
14-01-2019,21:00,1.31042,R,ugm-3,42.31244,R,ugm-3,44.32172,R,ugm-3
14-01-2019,22:00,1.71082,R,ugm-3,43.16089,R,ugm-3,45.78411,R,ugm-3
14-01-2019,23:00,1.09201,R,ugm-3,31.11693,R,ugm-3,32.79132,R,ugm-3
14-01-2019,24:00,0.72801,R,ugm-3,30.49390,R,ugm-3,31.61016,R,ugm-3
15-01-2019,01:00,0.43495,R,ugm-3,19.90838,R,ugm-3,20.57530,R,ugm-3
15-01-2019,02:00,0.43495,R,ugm-3,12.95019,R,ugm-3,13.61711,R,ugm-3
15-01-2019,03:00,0.54369,R,ugm-3,9.77198,R,ugm-3,10.60563,R,ugm-3
15-01-2019,04:00,0.32622,R,ugm-3,8.14144,R,ugm-3,8.64163,R,ugm-3
15-01-2019,05:00,0.50745,R,ugm-3,6.74126,R,ugm-3,7.51934,R,ugm-3
15-01-2019,06:00,0.32622,R,ugm-3,6.79469,R,ugm-3,7.29488,R,ugm-3
15-01-2019,07:00,0.72492,R,ugm-3,11.23365,R,ugm-3,12.34518,R,ugm-3
15-01-2019,08:00,1.26862,R,ugm-3,17.97545,R,ugm-3,19.92063,R,ugm-3
15-01-2019,09:00,1.99354,R,ugm-3,22.75593,R,ugm-3,25.81265,R,ugm-3
15-01-2019,10:00,1.01489,R,ugm-3,15.33431,R,ugm-3,16.89045,R,ugm-3
15-01-2019,11:00,1.37736,R,ugm-3,9.89658,R,ugm-3,12.00849,R,ugm-3
15-01-2019,12:00,1.37736,R,ugm-3,11.58001,R,ugm-3,13.69193,R,ugm-3
15-01-2019,13:00,1.81231,R,ugm-3,12.20373,R,ugm-3,14.98256,R,ugm-3
15-01-2019,14:00,1.70357,R,ugm-3,13.94166,R,ugm-3,16.55376,R,ugm-3
15-01-2019,15:00,1.73982,R,ugm-3,15.00837,R,ugm-3,17.67605,R,ugm-3
15-01-2019,16:00,1.77606,R,ugm-3,19.55418,R,ugm-3,22.27744,R,ugm-3
15-01-2019,17:00,1.23237,R,ugm-3,18.14325,R,ugm-3,20.03286,R,ugm-3
15-01-2019,18:00,4.13206,R,ugm-3,21.38480,R,ugm-3,27.72054,R,ugm-3
15-01-2019,19:00,1.30486,R,ugm-3,18.03210,R,ugm-3,20.03286,R,ugm-3
15-01-2019,20:00,0.90616,R,ugm-3,11.85360,R,ugm-3,13.24301,R,ugm-3
15-01-2019,21:00,0.65243,R,ugm-3,7.75347,R,ugm-3,8.75386,R,ugm-3